Overview Statistics Trail Chart Weather Telemetry Raw packets
 

This is the latest recevied weather packets stored in our database for station/object K4WCH. If no packets are shown the sender has not sent any weather packets the latest 10 day(s).

<< 17 18 19 20 21 22 23 >>
Time Temp. Humidity Pressure Rain* Wind** Luminosity Snow
1788541973 33.33° C 63% 1016.2 hPa 0 mm - 763 W/m² -
1788541669 32.78° C 64% 1016.2 hPa 0 mm - 889 W/m² -
1788541365 33.33° C 60% 1016.5 hPa 0 mm - 415 W/m² -
1788541064 33.33° C 62% 1016.3 hPa 0 mm - 958 W/m² -
1788540759 32.78° C 64% 1016.2 hPa 0 mm - 970 W/m² -
1788540458 32.78° C 64% 1016.1 hPa 0 mm - 818 W/m² -
1788540154 32.78° C 65% 1016.3 hPa 0 mm - 634 W/m² -
1788539850 32.22° C 67% 1016.2 hPa 0 mm - 858 W/m² -
1788539545 32.22° C 67% 1016.3 hPa 0 mm - 429 W/m² -
1788539244 31.67° C 71% 1016.5 hPa 0 mm - 1094 W/m² -
1788538939 31.67° C 69% 1016.5 hPa 0 mm - 319 W/m² -
1788538635 31.67° C 71% 1016.6 hPa 0 mm - 195 W/m² -
1788538329 31.67° C 71% 1016.7 hPa 0 mm - 195 W/m² -
1788538025 31.67° C 71% 1016.6 hPa 0 mm - 195 W/m² -
1788537721 32.22° C 67% 1016.8 hPa 0 mm - 254 W/m² -
1788537415 32.22° C 67% 1016.6 hPa 0 mm - 289 W/m² -
1788537115 32.22° C 67% 1016.7 hPa 0 mm - 934 W/m² -
1788536813 31.67° C 69% 1016.7 hPa 0 mm - 611 W/m² -
1788536513 31.67° C 69% 1016.6 hPa 0 mm - 918 W/m² -
1788536208 31.67° C 68% 1016.8 hPa 0 mm - 898 W/m² -
1788535904 31.67° C 70% 1016.9 hPa 0 mm - 171 W/m² -
1788535600 32.22° C 67% 1016.9 hPa 0 mm - 312 W/m² -
1788535295 31.67° C 68% 1016.8 hPa 0 mm - 435 W/m² -
1788534990 32.22° C 68% 1016.7 hPa 0 mm - 796 W/m² -
1788534689 31.67° C 71% 1016.8 hPa 0 mm - 822 W/m² -

* Rain latest hour (hover to see other rain measurements)
** Current wind speed in m/s (hover to see current wind gust speed)